Regional Weather Roundup
Issued by NWS

Home | Current Version | Previous Version | Text Only | Print | Product List | Glossary On
Versions: 1 2 3 4 5 6 7 8 9 10 11 12 13 14 15 16 17 18 19 20 21 22 23 24 25 26 27 28 29 30 31 32 33 34 35 36 37 38 39 40 41 42 43 44 45 46 47 48 49 50
000
ASUS44 KMEG 010210
RWRTN
TENNESSEE HOURLY STATE WEATHER ROUNDUP
NATIONAL WEATHER SERVICE MEMPHIS TN
900 PM CDT THU JUL 31 2014

TNZ002-004-019-021-049-052-054-088>092-010300-
WEST TENNESSEE

CITY           SKY/WX    TMP DP  RH WIND       PRES   REMARKS
MEMPHIS INTL   CLOUDY    74  65  73 N5        30.06R
NWS MEMPHIS      N/A     73 N/A N/A MISG        N/A
JACKSON        CLOUDY    71  65  81 CALM      30.05S
DYERSBURG      CLOUDY    72  61  68 CALM      30.07R
UNION CITY     CLEAR     70  66  88 CALM      30.05S
PARIS          MOCLDY    64  60  87 CALM      30.07S
LEXINGTON      CLEAR     70  64  83 CALM      30.05S
SAVANNAH       MOCLDY    70  70 100 CALM      30.06S
$$

TNZ008-025-027-028-033-062-065-066-010300-
NORTH MIDDLE TENNESSEE

CITY           SKY/WX    TMP DP  RH WIND       PRES   REMARKS
NASHVILLE      MOCLDY    74  61  63 SW3       30.06S
DICKSON        PTCLDY    70  61  73 CALM      30.07S
PORTLAND       MOCLDY    72  63  73 S3        30.07R
CLARKSVILLE    MOCLDY    74  60  61 W3        30.05S
LEBANON        PTCLDY    73  62  68 CALM      30.06R
SMYRNA         PTCLDY    70  63  78 CALM      30.07R
MURFREESBORO   PTCLDY    73  62  68 CALM      30.06S
COOKEVILLE     CLEAR     66  63  88 CALM      30.09R
GALLATIN       CLOUDY    76  64  66 S3        30.07S
CROSSVILLE     CLOUDY    70  63  78 CALM      30.14R
$$

TNZ061-075-076-078-094-096-097-010300-
SOUTH MIDDLE TENNESSEE

CITY           SKY/WX    TMP DP  RH WIND       PRES   REMARKS
LEWISBURG      PTCLDY    67  62  84 CALM      30.06S
FAYETTEVILLE   CLEAR     68  57  68 CALM      30.08R
TULLAHOMA      CLEAR     66  61  82 CALM      30.09S
WINCHESTER     CLEAR     70  63  78 CALM      30.09R
MCMINNVILLE    CLEAR     68  66  94 CALM      30.09R
COLUMBIA       CLEAR     72  64  78 CALM      30.05S
SHELBYVILLE    CLEAR     66  63  88 CALM      30.08S
$$

TNZ017-018-042-046-047-010300-
NORTHEAST TENNESSEE

CITY           SKY/WX    TMP DP  RH WIND       PRES   REMARKS
TRI CITIES     CLOUDY    70  59  68 CALM      30.14S
ELIZABETHTON   CLEAR     66  61  82 NE6       30.16R
$$

TNZ012-013-036-069-073-074-010300-
CENTRAL EAST TENNESSEE

CITY           SKY/WX    TMP DP  RH WIND       PRES   REMARKS
KNOXVILLE      CLOUDY    73  64  73 NE3       30.08R
OAK RIDGE      MOCLDY    73  64  73 CALM      30.10R
GATLINBURG     CLEAR     72  63  73 E3        30.09R
MORRISTOWN     CLEAR     70  63  78 VRB3      30.12S
$$

TNZ083-085-099-010300-
SOUTHEAST TENNESSEE

CITY           SKY/WX    TMP DP  RH WIND       PRES   REMARKS
CHATTANOOGA    MOCLDY    73  65  75 CALM      30.08R
$$

SKY/WX REPORTED AS FAIR MEANS FEW OR NO CLOUDS BELOW
12 THOUSAND FEET.



USA.gov is the U.S. government's official web portal to all federal, state and local government web resources and services.